Portada
METAR-TAF:

METAR-TAF

Aeroports :

Sanford Regional Airport

Sanford, Maine, Estats Units d'Amèrica

latitud: 43-24N, longitud: 070-43W, altitud: 74 m

Observació

L'informe es va fer fa 1 hora i 11 minuts, a les 22:56 UTC
Vent 3 kt del Est
Temperatura 7°C
Humitat 70%
Pressió 1010 hPa
Visibilitat: 16.1 km
Cel cobert a una alçada de 6000 ft

METAR: KSFM 152256Z AUTO 09003KT 10SM OVC060 07/02 A2983 RMK AO2 SLP105 T00720017

Hora: 20:07 (00:07 UTC)


TAF: manca

Observacions i pronòstics meteorològics de més de 4000 aeroports (METAR i TAF).

Les estacions disponibles són els punts grocs i vermells al mapa.

Posi el ratolí al punt desitjat per veure el nom de l'estació.

Feu clic per veure les observacions i els pronòstics meteorològics.

Per canviar el mapa: feu clic els botons verds amb una creu de color negre per apropar; al botó verd amb un guió per allunyar la imatge; o en les fletxes verdes per a mapes adjacents.


METAR-TAF: